Weather History for KAXS - July, 2013

Change the Weather History Date:

Monday, July 8, 2013

  Actual Average (KLTS) Record (KLTS)
Temperature  
Mean Temperature 88 °F -  
Max Temperature 102 °F 93 °F 106 °F (2011)
Min Temperature 74 °F 70 °F 64 °F (2015)
Cooling Degree Days 23    
Growing Degree Days 38 (Base 50)    
Moisture  
Dew Point 59 °F    
Average Humidity 38    
Maximum Humidity 65    
Minimum Humidity 21    
Precipitation  
Precipitation 0.00 in - - ()
Sea Level Pressure  
Sea Level Pressure 30.03 in    
Wind  
Wind Speed 10 mph (SE)    
Max Wind Speed 16 mph    
Max Gust Speed 23 mph    
Visibility 10 miles    
Events      
Averages and records for this station are not official NWS values.
T = Trace of Precipitation, MM = Missing Value Source: NWS Daily Summary

Daily Weather History Graph

Daily Weather History Graph

Search for Another Location

Airport or City:

Trip Planner

Search our weather history database for the weather conditions in past years. The results will help you decide how hot, cold, wet, or windy it might be!

Date:

Astronomy

Jul. 08, 2013 Rise Set
Actual Time 6:31 AM CDT 8:53 PM CDT
Civil Twilight 6:02 AM CDT 9:22 PM CDT
Nautical Twilight 5:26 AM CDT 9:58 PM CDT
Astronomical Twilight 4:47 AM CDT 10:37 PM CDT
Moon 6:58 AM CDT (7/8) 9:01 PM CDT (7/8)
Length of Visible Light 15h 20m
Length of Day
14h 21m
New Moon, 0% of the Moon is Illuminated
Jul 8
New Moon
Jul 15
First Quarter
Jul 22
Full
Jul 29
Last Quarter
Aug 6
New

Hourly Weather History & Observations

Time (CDT) Temp. Heat Index Dew Point Humidity Pressure Visibility Wind Dir Wind Speed Gust Speed Precip Events Conditions
12:15 AM 83.3 °F 82.6 °F 56.8 °F 40% 30.01 in 10.0 mi ESE 10.4 mph - N/A   Clear
12:35 AM 82.0 °F 81.7 °F 56.8 °F 42% 30.01 in 10.0 mi ESE 9.2 mph - N/A   Clear
12:55 AM 81.5 °F 81.4 °F 57.2 °F 43% 30.01 in 10.0 mi ESE 9.2 mph - N/A   Clear
1:15 AM 81.7 °F 81.6 °F 57.6 °F 44% 30.01 in 10.0 mi SE 11.5 mph - N/A   Clear
1:35 AM 82.0 °F 81.8 °F 57.7 °F 43% 30.01 in 10.0 mi SE 10.4 mph - N/A   Clear
1:55 AM 81.1 °F 81.3 °F 57.7 °F 45% 30.02 in 10.0 mi ESE 8.1 mph - N/A   Clear
2:15 AM 79.2 °F - 57.9 °F 48% 30.02 in 10.0 mi ESE 8.1 mph - N/A   Clear
2:35 AM 78.3 °F - 57.7 °F 49% 30.02 in 10.0 mi ESE 9.2 mph - N/A   Clear
2:55 AM 77.0 °F - 57.9 °F 52% 30.02 in 10.0 mi East 8.1 mph - N/A   Clear
3:15 AM 76.8 °F - 58.3 °F 53% 30.03 in 10.0 mi ESE 8.1 mph - N/A   Clear
3:35 AM 76.5 °F - 58.5 °F 54% 30.03 in 10.0 mi ESE 8.1 mph - N/A   Clear
3:55 AM 76.3 °F - 59.0 °F 55% 30.03 in 10.0 mi ESE 8.1 mph - N/A   Clear
4:15 AM 75.6 °F - 59.4 °F 57% 30.03 in 10.0 mi East 8.1 mph - N/A   Clear
4:35 AM 75.6 °F - 59.7 °F 58% 30.03 in 10.0 mi ESE 8.1 mph - N/A   Clear
4:55 AM 75.2 °F - 59.9 °F 59% 30.04 in 10.0 mi ESE 6.9 mph - N/A   Clear
5:15 AM 74.7 °F - 60.4 °F 61% 30.04 in 10.0 mi ESE 9.2 mph - N/A   Clear
5:35 AM 74.5 °F - 60.8 °F 62% 30.04 in 10.0 mi ESE 6.9 mph - N/A   Clear
6:15 AM 74.3 °F - 61.3 °F 64% 30.05 in 10.0 mi ESE 8.1 mph - N/A   Clear
6:35 AM 74.3 °F - 61.7 °F 65% 30.05 in 10.0 mi ESE 8.1 mph - N/A   Clear
6:55 AM 74.3 °F - 61.9 °F 65% 30.06 in 10.0 mi ESE 6.9 mph - N/A   Clear
7:15 AM 74.3 °F - 62.1 °F 65% 30.06 in 10.0 mi ESE 8.1 mph - N/A   Clear
7:35 AM 75.2 °F - 62.4 °F 64% 30.06 in 10.0 mi ESE 8.1 mph - N/A   Clear
7:55 AM 77.0 °F - 62.8 °F 61% 30.07 in 10.0 mi ESE 8.1 mph - N/A   Clear
8:15 AM 79.3 °F - 63.1 °F 57% 30.07 in 10.0 mi SE 8.1 mph - N/A   Clear
8:35 AM 80.8 °F 82.1 °F 63.3 °F 55% 30.07 in 10.0 mi SSE 9.2 mph - N/A   Clear
8:55 AM 82.4 °F 83.7 °F 63.5 °F 53% 30.07 in 10.0 mi SSE 10.4 mph - N/A   Clear
9:15 AM 84.4 °F 85.6 °F 63.9 °F 50% 30.08 in 10.0 mi SSE 9.2 mph - N/A   Clear
9:35 AM 86.2 °F 87.3 °F 64.0 °F 47% 30.08 in 10.0 mi South 10.4 mph - N/A   Clear
9:55 AM 87.3 °F 88.3 °F 63.7 °F 45% 30.08 in 10.0 mi South 11.5 mph - N/A   Clear
10:15 AM 88.9 °F 90.0 °F 63.7 °F 43% 30.08 in 10.0 mi South 8.1 mph - N/A   Clear
10:35 AM 90.0 °F 91.0 °F 63.7 °F 41% 30.08 in 10.0 mi South 10.4 mph - N/A   Clear
10:55 AM 91.4 °F 92.4 °F 63.5 °F 39% 30.08 in 10.0 mi South 12.7 mph - N/A   Clear
11:15 AM 92.7 °F 93.6 °F 63.0 °F 37% 30.08 in 10.0 mi South 15.0 mph 19.6 mph N/A   Clear
11:35 AM 93.9 °F 94.8 °F 62.1 °F 35% 30.07 in 10.0 mi SSW 12.7 mph 19.6 mph N/A   Clear
11:55 AM 94.6 °F 95.1 °F 61.2 °F 33% 30.07 in 10.0 mi South 16.1 mph - N/A   Clear
12:15 PM 96.1 °F 96.4 °F 60.8 °F 31% 30.07 in 10.0 mi South 8.1 mph 20.7 mph N/A   Clear
12:35 PM 97.3 °F 97.5 °F 59.9 °F 29% 30.07 in 10.0 mi South 11.5 mph 17.3 mph N/A   Clear
12:55 PM 99.0 °F 98.6 °F 58.8 °F 26% 30.06 in 10.0 mi South 10.4 mph 18.4 mph N/A   Clear
1:15 PM 97.0 °F 96.5 °F 58.6 °F 28% 30.06 in 10.0 mi South 6.9 mph 16.1 mph N/A   Clear
1:35 PM 99.7 °F 98.7 °F 56.7 °F 24% 30.05 in 10.0 mi SSE 8.1 mph 18.4 mph N/A   Clear
1:55 PM 98.1 °F 96.8 °F 56.8 °F 25% 30.04 in 10.0 mi SSE 11.5 mph 17.3 mph N/A   Clear
2:15 PM 99.3 °F 98.2 °F 57.0 °F 24% 30.04 in 10.0 mi South 10.4 mph 18.4 mph N/A   Clear
2:35 PM 100.2 °F 99.0 °F 56.3 °F 23% 30.03 in 10.0 mi South 16.1 mph 20.7 mph N/A   Clear
2:55 PM 100.2 °F 99.0 °F 55.8 °F 23% 30.02 in 10.0 mi SSW 13.8 mph - N/A   Clear
3:15 PM 100.0 °F 98.8 °F 56.1 °F 23% 30.02 in 10.0 mi South 13.8 mph 21.9 mph N/A   Clear
3:35 PM 101.7 °F 100.6 °F 56.3 °F 22% 30.01 in 10.0 mi South 12.7 mph 23.0 mph N/A   Clear
3:55 PM 100.4 °F 99.3 °F 55.9 °F 23% 30.00 in 10.0 mi SSE 13.8 mph 20.7 mph N/A   Clear
4:15 PM 101.8 °F 100.8 °F 55.9 °F 22% 30.00 in 10.0 mi South 12.7 mph - N/A   Clear
4:35 PM 100.0 °F 98.8 °F 56.1 °F 23% 29.99 in 10.0 mi South 11.5 mph 23.0 mph N/A   Clear
4:55 PM 101.7 °F 100.6 °F 55.8 °F 22% 29.99 in 10.0 mi SSW 12.7 mph 21.9 mph N/A   Clear
5:15 PM 102.0 °F 100.6 °F 55.4 °F 21% 29.98 in 10.0 mi SSE 10.4 mph - N/A   Clear
5:35 PM 101.7 °F 100.1 °F 55.4 °F 21% 29.98 in 10.0 mi SSE 12.7 mph 19.6 mph N/A   Clear
5:55 PM 101.3 °F 100.1 °F 55.9 °F 22% 29.98 in 10.0 mi SE 10.4 mph - N/A   Clear
6:15 PM 101.3 °F 100.1 °F 55.8 °F 22% 29.98 in 10.0 mi SE 16.1 mph - N/A   Clear
6:35 PM 100.8 °F 99.3 °F 55.8 °F 22% 29.97 in 10.0 mi SSE 16.1 mph - N/A   Clear
6:55 PM 100.6 °F 99.1 °F 55.8 °F 22% 29.97 in 10.0 mi SSE 12.7 mph - N/A   Clear
7:15 PM 100.4 °F 98.8 °F 55.4 °F 22% 29.96 in 10.0 mi SSE 11.5 mph - N/A   Clear
7:35 PM 98.8 °F 97.0 °F 55.2 °F 23% 29.97 in 10.0 mi SSE 15.0 mph - N/A   Clear
7:55 PM 99.0 °F 97.3 °F 55.0 °F 23% 29.97 in 10.0 mi SSE 11.5 mph - N/A   Clear
8:15 PM 97.9 °F 96.2 °F 55.6 °F 24% 29.97 in 10.0 mi SSE 11.5 mph - N/A   Clear
8:35 PM 97.0 °F 95.3 °F 56.1 °F 25% 29.97 in 10.0 mi SSE 10.4 mph - N/A   Clear
8:55 PM 95.7 °F 94.0 °F 55.8 °F 26% 29.98 in 10.0 mi SE 10.4 mph - N/A   Clear
9:15 PM 93.7 °F 92.0 °F 55.9 °F 28% 29.99 in 10.0 mi SE 9.2 mph - N/A   Clear
9:35 PM 93.0 °F 91.4 °F 56.3 °F 29% 29.99 in 10.0 mi SE 9.2 mph - N/A   Clear
9:55 PM 92.3 °F 90.7 °F 56.8 °F 30% 30.00 in 10.0 mi SE 10.4 mph - N/A   Clear
10:15 PM 91.4 °F 90.1 °F 57.6 °F 32% 30.02 in 10.0 mi SSE 9.2 mph - N/A   Clear
10:35 PM 90.5 °F 89.5 °F 58.3 °F 34% 30.03 in 10.0 mi SE 10.4 mph - N/A   Clear
10:55 PM 89.2 °F 88.4 °F 59.0 °F 36% 30.03 in 10.0 mi ESE 9.2 mph - N/A   Clear
11:15 PM 88.7 °F 88.3 °F 59.7 °F 38% 30.03 in 10.0 mi SE 11.5 mph - N/A   Clear
11:35 PM 88.9 °F 88.8 °F 61.0 °F 39% 30.03 in 10.0 mi SE 13.8 mph - N/A   Clear
11:55 PM 88.0 °F 88.1 °F 61.7 °F 41% 30.04 in 10.0 mi SE 13.8 mph - N/A   Clear